When you browse on this site, cookies collect data to enhance your experience and personalize the content and advertising you see.
Visit our Privacy Policy to learn more. By continuing to use the site, you agree to this use of cookies and data.
  • In United Kingdom
  • List of Countries
  • For 7 days
  • Water Temperature
  • Weather Map
  • Weather Widgets
  • user-avatar
    Login

    Hourly Weather Tsibulev

    Today, 22 February, Saturday

    Time Temperature Precipitation Wind Pressure Humidity
    00:00 -1°C° 0 mm 2 mps 746 mmHg 79%
    01:00 +1°C° 0 mm 1 mps 746 mmHg 79%
    02:00 +1°C° 0 mm 1 mps 746 mmHg 79%
    03:00 +1°C° 0 mm 1 mps 747 mmHg 79%
    04:00 0°C° 0 mm 0 mps 747 mmHg 78%
    05:00 0°C° 0 mm 0 mps 747 mmHg 78%
    06:00 0°C° 0 mm 0 mps 747 mmHg 76%
    07:00 +1°C° 0 mm 1 mps 748 mmHg 75%
    08:00 +1°C° 0 mm 1 mps 748 mmHg 74%
    09:00 +2°C° 0 mm 1 mps 748 mmHg 69%
    10:00 +4°C° 0 mm 1 mps 748 mmHg 64%
    11:00 +4°C° 0 mm 0 mps 749 mmHg 59%
    12:00 +5°C° 0 mm 1 mps 748 mmHg 58%
    13:00 +6°C° 0 mm 1 mps 748 mmHg 56%
    14:00 +6°C° 0 mm 1 mps 748 mmHg 54%
    15:00 +6°C° 0 mm 1 mps 748 mmHg 57%
    16:00 +5°C° 0 mm 2 mps 747 mmHg 59%
    17:00 +5°C° 0 mm 2 mps 747 mmHg 62%
    18:00 +4°C° 0 mm 2 mps 747 mmHg 65%
    19:00 +4°C° 0 mm 2 mps 747 mmHg 68%
    20:00 +3°C° 0 mm 2 mps 747 mmHg 71%
    21:00 +2°C° 0 mm 3 mps 746 mmHg 73%
    22:00 +2°C° 0 mm 3 mps 746 mmHg 75%
    23:00 0°C° 0 mm 4 mps 745 mmHg 77%

    Tomorrow, 23 February, Sunday

    Time Temperature Precipitation Wind Pressure Humidity
    00:00 0°C° 0 mm 4 mps 745 mmHg 78%
    01:00 0°C° 0 mm 5 mps 744 mmHg 80%
    02:00 0°C° 0 mm 5 mps 744 mmHg 82%
    03:00 -1°C° 0 mm 6 mps 743 mmHg 80%
    04:00 -1°C° 0 mm 6 mps 742 mmHg 79%
    05:00 -1°C° 0 mm 7 mps 741 mmHg 77%
    06:00 -1°C° 0.1 mm 7 mps 741 mmHg 81%
    07:00 -1°C° 0.1 mm 7 mps 740 mmHg 85%
    08:00 -1°C° 0.1 mm 7 mps 740 mmHg 89%
    09:00 0°C° 0.2 mm 7 mps 740 mmHg 81%
    10:00 +1°C° 0.2 mm 8 mps 739 mmHg 74%
    11:00 +4°C° 0.2 mm 8 mps 739 mmHg 66%
    12:00 +4°C° 0 mm 8 mps 738 mmHg 67%
    13:00 +5°C° 0 mm 8 mps 738 mmHg 68%
    14:00 +5°C° 0 mm 8 mps 738 mmHg 69%
    15:00 +5°C° 0.1 mm 7 mps 737 mmHg 71%
    16:00 +4°C° 0.1 mm 7 mps 737 mmHg 73%
    17:00 +4°C° 0.1 mm 7 mps 737 mmHg 75%
    18:00 +3°C° 0.1 mm 6 mps 736 mmHg 76%
    19:00 +3°C° 0.1 mm 5 mps 736 mmHg 78%
    20:00 +2°C° 0.1 mm 5 mps 736 mmHg 80%
    21:00 +3°C° 0 mm 4 mps 735 mmHg 82%
    22:00 +3°C° 0 mm 4 mps 735 mmHg 84%
    23:00 +3°C° 0 mm 3 mps 734 mmHg 87%

    Day after tomorrow, 24 February, Monday

    Time Temperature Precipitation Wind Pressure Humidity
    00:00 +3°C° 0.5 mm 4 mps 732 mmHg 88%
    01:00 +2°C° 0.5 mm 5 mps 731 mmHg 90%
    02:00 +2°C° 0.5 mm 6 mps 729 mmHg 91%
    03:00 +3°C° 1.5 mm 7 mps 727 mmHg 90%
    04:00 +2°C° 1.5 mm 8 mps 724 mmHg 89%
    05:00 +3°C° 1.5 mm 9 mps 722 mmHg 88%
    06:00 +3°C° 0.3 mm 9 mps 721 mmHg 87%
    07:00 +2°C° 0.3 mm 8 mps 721 mmHg 86%
    08:00 +3°C° 0.3 mm 7 mps 720 mmHg 85%
    09:00 0°C° 1 mm 10 mps 722 mmHg 86%
    10:00 -2°C° 1 mm 13 mps 723 mmHg 87%
    11:00 -4°C° 1 mm 17 mps 725 mmHg 88%
    12:00 -3°C° 0.1 mm 16 mps 727 mmHg 84%
    13:00 -2°C° 0.1 mm 14 mps 729 mmHg 79%
    14:00 -1°C° 0.1 mm 13 mps 731 mmHg 74%
    15:00 -1°C° 0 mm 13 mps 732 mmHg 74%
    16:00 -1°C° 0 mm 12 mps 733 mmHg 74%
    17:00 -1°C° 0 mm 11 mps 735 mmHg 74%
    18:00 -2°C° 0 mm 10 mps 736 mmHg 74%
    19:00 -1°C° 0 mm 9 mps 737 mmHg 75%
    20:00 -1°C° 0 mm 8 mps 738 mmHg 75%
    21:00 -1°C° 0 mm 8 mps 738 mmHg 77%
    22:00 -2°C° 0 mm 7 mps 739 mmHg 79%
    23:00 -2°C° 0 mm 7 mps 739 mmHg 81%

    25 February, Tuesday

    Time Temperature Precipitation Wind Pressure Humidity
    00:00 -2°C° 0 mm 6 mps 740 mmHg 84%
    01:00 -2°C° 0 mm 6 mps 741 mmHg 87%
    02:00 -2°C° 0 mm 5 mps 741 mmHg 90%
    03:00 -2°C° 0 mm 4 mps 741 mmHg 91%
    04:00 -2°C° 0 mm 4 mps 741 mmHg 91%
    05:00 -2°C° 0 mm 3 mps 741 mmHg 92%
    06:00 -1°C° 0 mm 3 mps 741 mmHg 91%
    07:00 -2°C° 0 mm 4 mps 741 mmHg 90%
    08:00 -1°C° 0 mm 4 mps 741 mmHg 88%
    09:00 0°C° 0 mm 5 mps 740 mmHg 80%
    10:00 +1°C° 0 mm 5 mps 740 mmHg 72%
    11:00 +2°C° 0 mm 6 mps 739 mmHg 64%
    12:00 +3°C° 0 mm 7 mps 739 mmHg 62%
    13:00 +3°C° 0 mm 7 mps 738 mmHg 61%
    14:00 +2°C° 0 mm 8 mps 738 mmHg 60%
    15:00 +3°C° 0 mm 7 mps 737 mmHg 60%
    16:00 +3°C° 0 mm 6 mps 736 mmHg 60%
    17:00 +3°C° 0 mm 5 mps 736 mmHg 60%
    18:00 +3°C° 0 mm 5 mps 735 mmHg 60%
    19:00 +3°C° 0 mm 5 mps 735 mmHg 61%
    20:00 +2°C° 0 mm 5 mps 735 mmHg 61%
    21:00 +2°C° 0 mm 5 mps 734 mmHg 62%
    22:00 +2°C° 0 mm 5 mps 734 mmHg 63%
    23:00 +1°C° 0 mm 5 mps 733 mmHg 65%

    26 February, Wednesday

    Time Temperature Precipitation Wind Pressure Humidity
    00:00 +1°C° 0 mm 4 mps 733 mmHg 66%
    01:00 +1°C° 0 mm 4 mps 732 mmHg 68%
    02:00 +1°C° 0 mm 4 mps 732 mmHg 69%
    03:00 0°C° 0 mm 4 mps 732 mmHg 71%
    04:00 +1°C° 0 mm 3 mps 731 mmHg 74%
    05:00 +1°C° 0 mm 3 mps 731 mmHg 76%
    06:00 +1°C° 0 mm 3 mps 731 mmHg 75%
    07:00 +2°C° 0 mm 2 mps 731 mmHg 75%
    08:00 +2°C° 0 mm 2 mps 731 mmHg 75%
    09:00 +4°C° 0 mm 2 mps 731 mmHg 71%
    10:00 +4°C° 0 mm 3 mps 730 mmHg 68%
    11:00 +5°C° 0 mm 3 mps 730 mmHg 65%
    12:00 +5°C° 0 mm 3 mps 730 mmHg 65%
    13:00 +7°C° 0 mm 3 mps 729 mmHg 64%
    14:00 +6°C° 0 mm 4 mps 729 mmHg 64%
    15:00 +7°C° 0 mm 3 mps 728 mmHg 66%
    16:00 +7°C° 0 mm 2 mps 728 mmHg 68%
    17:00 +7°C° 0 mm 2 mps 727 mmHg 70%
    18:00 +6°C° 0 mm 2 mps 727 mmHg 72%
    19:00 +6°C° 0 mm 2 mps 727 mmHg 75%
    20:00 +5°C° 0 mm 2 mps 727 mmHg 77%
    21:00 +5°C° 0 mm 2 mps 726 mmHg 81%
    22:00 +4°C° 0 mm 3 mps 726 mmHg 84%
    23:00 +4°C° 0 mm 3 mps 726 mmHg 87%

    27 February, Thursday

    Time Temperature Precipitation Wind Pressure Humidity
    00:00 +4°C° 0 mm 3 mps 725 mmHg 89%
    01:00 +3°C° 0 mm 3 mps 725 mmHg 91%
    02:00 +3°C° 0 mm 3 mps 725 mmHg 92%
    03:00 +4°C° 0.2 mm 2 mps 724 mmHg 93%
    04:00 +4°C° 0.2 mm 2 mps 724 mmHg 93%
    05:00 +4°C° 0.2 mm 2 mps 724 mmHg 94%
    06:00 +5°C° 0.7 mm 1 mps 724 mmHg 95%
    07:00 +5°C° 0.7 mm 1 mps 724 mmHg 96%
    08:00 +5°C° 0.7 mm 1 mps 724 mmHg 97%
    09:00 +4°C° 1 mm 2 mps 725 mmHg 96%
    10:00 +3°C° 1 mm 4 mps 725 mmHg 96%
    11:00 +2°C° 1 mm 5 mps 725 mmHg 95%
    12:00 +2°C° 0.4 mm 6 mps 726 mmHg 95%
    13:00 +1°C° 0.4 mm 6 mps 726 mmHg 94%
    14:00 +1°C° 0.4 mm 6 mps 726 mmHg 94%
    15:00 +1°C° 0.1 mm 6 mps 727 mmHg 89%
    16:00 +1°C° 0.1 mm 5 mps 727 mmHg 83%
    17:00 +2°C° 0.1 mm 5 mps 727 mmHg 78%
    18:00 +1°C° 0 mm 5 mps 728 mmHg 77%
    19:00 +1°C° 0 mm 5 mps 729 mmHg 77%
    20:00 +1°C° 0 mm 5 mps 729 mmHg 76%
    21:00 0°C° 0 mm 5 mps 730 mmHg 77%
    22:00 0°C° 0 mm 5 mps 730 mmHg 77%
    23:00 -1°C° 0 mm 6 mps 730 mmHg 77%
    Show more